sat.trackr.live / text

‹ back to catalog

STARLINK-32118

NORAD 60280 · 2024-132C

PAYLOAD ACTIVE UNKNOWN

§ Identity

Operator
Country
US
Launch date
2024-07-28
Launch site
AFETR
Launch vehicle
Mass (kg)
RCS (m²)

Purposes: comms

External: N2YO · Heavens-Above · Gunter

§ Orbital elements

Epoch: 2026-09-21T03:37:03.339840Z

Period
93.85 min
Inclination
53.1573°
Eccentricity
0.0002417
Mean motion
15.34404478 rev/d
Perigee alt
461.0 km
Apogee alt
464.3 km
Semi-major
6,840.8 km
B*
1.4949e-4
RAAN
222.5986°
Arg perigee
87.5959°
Mean anomaly
272.5320°
Rev number
12,151

§ Raw data

STARLINK-321181 60280U 24132C   26264.15073310  .00004678  00000+0  14949-3 0  99922 60280  53.1573 222.5986 0002417  87.5959 272.5320 15.34404478121514

JSON: /api/v1/satellites/60280 · /tle

For live sub-satellite position, see the globe view (requires WebGL).

§ Visibility from observer

Set your observer location to see the next 7 days of passes ≥ 10°. The values pass through the URL so the page stays shareable.

No JS? Fill the form by hand. The geolocation button needs JavaScript.